Weather History for Vancouver International Air-Port, B. C., British Columbia

Change the Weather History Date:

Friday, November 23, 2012

  Actual Average Record
Temperature  
Mean Temperature 44 °F -  
Max Temperature 48 °F 44 °F - ()
Min Temperature 39 °F 34 °F - ()
Degree Days  
Heating Degree Days 22    
Moisture  
Dew Point 43 °F    
Average Humidity 91    
Maximum Humidity 100    
Minimum Humidity 71    
Precipitation  
Precipitation 0.24 in 0.23 in - ()
Sea Level Pressure  
Sea Level Pressure 30.06 in    
Wind  
Wind Speed 12 mph ()    
Max Wind Speed 20 mph    
Max Gust Speed 29 mph    
Visibility 8.3 miles    
Events Fog , Rain    
T = Trace of Precipitation, MM = Missing Value Source: Averaged Metar Reports

Daily Weather History Graph

Daily Weather History Graph

Search for Another Location

Airport:

Trip Planner

Search our weather history database for the weather conditions in past years. The results will help you decide how hot, cold, wet, or windy it might be!

Date:

Astronomy

Nov. 23, 2012 Rise Set
Actual Time 7:35 AM PST 4:22 PM PST
Civil Twilight 7:00 AM PST 4:58 PM PST
Nautical Twilight 6:20 AM PST 5:37 PM PST
Astronomical Twilight 5:42 AM PST 6:15 PM PST
Moon 1:57 PM PST (11/23) 2:39 AM PST (11/23)
Length of Visible Light 9h 58m
Length of Day
8h 46m
Waxing Gibbous, 80% of the Moon is Illuminated
Nov 23
Waxing Gibbous
Nov 28
Full
Dec 6
Last Quarter
Dec 13
New
Dec 19
First Quarter

Hourly Weather History & Observations

Time (PST) Temp. Windchill Dew Point Humidity Pressure Visibility Wind Dir Wind Speed Gust Speed Precip Events Conditions
12:00 AM 46.4 °F 39.2 °F 37.4 °F 71% 30.14 in 12.0 mi East 18.4 mph - N/A   Overcast
12:13 AM 46.4 °F 40.1 °F - N/A% - 12.0 mi East 15.0 mph - N/A Rain Light Rain
1:00 AM 46.4 °F 39.2 °F 39.2 °F 76% 30.12 in 12.0 mi ENE 18.4 mph 28.8 mph N/A Rain Light Rain
2:00 AM 46.4 °F 40.1 °F 39.2 °F 76% 30.12 in 12.0 mi East 15.0 mph 20.7 mph N/A Rain Light Rain
3:00 AM 44.6 °F 36.6 °F 41.0 °F 87% 30.10 in 8.0 mi East 19.6 mph - N/A Rain Light Rain
4:00 AM 44 °F - 41 °F 85% 30.06 in 7 mi NE 17.3 mph - - Rain Light Rain
4:00 AM 44.6 °F 37.8 °F 41.0 °F 87% 30.06 in 8.0 mi East 15.0 mph 21.9 mph N/A Rain Light Rain
5:00 AM 44.6 °F 37.8 °F 41.0 °F 87% 30.06 in 8.0 mi East 15.0 mph - N/A Rain Light Rain
6:00 AM 44.6 °F 37.8 °F 42.8 °F 93% 30.06 in 8.0 mi East 15.0 mph - N/A Rain Light Rain
7:00 AM 44.6 °F 37.2 °F 42.8 °F 93% 30.06 in 6.0 mi East 17.3 mph 24.2 mph N/A   Light Drizzle
7:09 AM 44.6 °F 37.2 °F - N/A% - 6.0 mi East 17.3 mph - N/A   Light Drizzle
8:00 AM 44.6 °F 37.4 °F 42.8 °F 93% 30.06 in 7.0 mi East 16.1 mph 21.9 mph N/A   Light Drizzle
8:13 AM 44.6 °F 36.9 °F - N/A% - 6.0 mi East 18.4 mph - N/A   Light Drizzle
8:18 AM 44.6 °F 37.4 °F - N/A% - 2.5 mi East 16.1 mph - N/A   Light Drizzle
8:23 AM 44.6 °F 37.8 °F - N/A% - 2.0 mi East 15.0 mph - N/A Rain Light Rain
9:00 AM 44.6 °F 37.2 °F 42.8 °F 93% 30.05 in 2.2 mi East 17.3 mph - N/A Rain Light Rain
9:06 AM 44.6 °F 37.4 °F - N/A% - 3.0 mi East 16.1 mph 21.9 mph N/A Rain Light Rain
9:29 AM 44.6 °F 37.4 °F - N/A% - 6.0 mi East 16.1 mph - N/A Rain Light Rain
9:35 AM 44.6 °F 37.8 °F - N/A% - 6.0 mi East 15.0 mph - N/A Rain Light Rain
9:44 AM 44.6 °F 37.8 °F - N/A% - 7.0 mi East 15.0 mph 21.9 mph N/A Rain Light Rain
9:53 AM 44.6 °F 38.8 °F - N/A% - 6.0 mi East 11.5 mph 19.6 mph N/A Rain Light Rain
10:00 AM 45 °F - 43 °F 92% 30.06 in 5 mi East 12.7 mph - - Rain Light Rain
10:00 AM 44.6 °F 38.4 °F 42.8 °F 93% 30.06 in 5.0 mi ESE 12.7 mph - N/A Rain Light Rain
10:24 AM 44.6 °F 38.4 °F - N/A% - 3.0 mi ESE 12.7 mph - N/A Rain Light Rain
11:00 AM 46.4 °F 40.7 °F 44.6 °F 93% 30.06 in 7.0 mi ESE 12.7 mph - N/A Rain Light Rain
11:36 AM 46.4 °F 41.9 °F - N/A% - 5.0 mi ESE 9.2 mph - N/A Rain Light Rain
11:40 AM 46.4 °F 42.4 °F - N/A% - 2.5 mi East 8.1 mph - N/A Rain Light Rain
11:54 AM 46.4 °F 41.9 °F - N/A% - 4.0 mi ESE 9.2 mph - N/A Rain Light Rain
12:00 PM 46.4 °F 41.9 °F 46.4 °F 100% 30.06 in 4.0 mi ESE 9.2 mph - N/A Rain Light Rain
12:36 PM 48.2 °F - - N/A% - 7.0 mi ESE 12.7 mph - N/A Rain Light Rain
12:50 PM 48.2 °F - - N/A% - 12.0 mi ESE 11.5 mph - N/A   Overcast
1:00 PM 48.2 °F - 46.4 °F 93% 30.03 in 15.0 mi East 6.9 mph - N/A   Overcast
2:00 PM 48.2 °F - 46.4 °F 93% 30.03 in 15.0 mi East 4.6 mph - N/A   Overcast
3:00 PM 48.2 °F - 46.4 °F 93% 30.04 in 15.0 mi East 8.1 mph - N/A   Overcast
3:24 PM 48.2 °F - - N/A% - 15.0 mi East 8.1 mph - N/A   Overcast
4:00 PM 46 °F - 46 °F 100% 30.04 in 15 mi East 6.9 mph - -   Partly Cloudy
4:00 PM 48.2 °F - 46.4 °F 93% 30.04 in 15.0 mi East 5.8 mph - N/A   Overcast
4:11 PM 48.2 °F - - N/A% - 15.0 mi East 8.1 mph - N/A   Overcast
4:44 PM 46.4 °F 42.4 °F - N/A% - 15.0 mi East 8.1 mph - N/A   Overcast
5:00 PM 46.4 °F 41.9 °F 44.6 °F 93% 30.04 in 15.0 mi ESE 9.2 mph - N/A Rain Light Rain Showers
5:50 PM 46.4 °F 43.5 °F - N/A% - 12.0 mi East 5.8 mph - N/A Rain Light Rain Showers
6:00 PM 46.4 °F 43.5 °F 44.6 °F 93% 30.04 in 12.0 mi East 5.8 mph - N/A Rain Light Rain Showers
6:27 PM 46.4 °F 43.5 °F - N/A% - 12.0 mi ESE 5.8 mph - N/A Rain Light Rain Showers
7:00 PM 44.6 °F 40.2 °F 42.8 °F 93% 30.03 in 15.0 mi East 8.1 mph - N/A   Scattered Clouds
7:24 PM 44.6 °F 40.7 °F - N/A% - 8.0 mi ESE 6.9 mph - N/A   Mostly Cloudy
8:00 PM 46.4 °F 43.5 °F 44.6 °F 93% 30.05 in 8.0 mi SE 5.8 mph - N/A   Mostly Cloudy
8:34 PM 44.6 °F 43.1 °F - N/A% - 8.0 mi ESE 3.5 mph - N/A Fog Shallow Fog
9:00 PM 44.6 °F 43.1 °F 42.8 °F 93% 30.06 in 8.0 mi SE 3.5 mph - N/A Fog Shallow Fog
9:14 PM 42.8 °F - - N/A% - 1.5 mi Calm Calm - N/A   Mostly Cloudy
9:30 PM 42.8 °F - - N/A% - 4.0 mi Calm Calm - N/A   Mostly Cloudy
10:00 PM 43 °F - 42 °F 96% 30.08 in 12 mi Calm Calm - - Fog Patches of Fog
10:00 PM 42.8 °F - 42.8 °F 100% 30.08 in 12.0 mi Calm Calm - N/A Fog Shallow Fog
10:26 PM 39.2 °F 37.0 °F - N/A% - 2.5 mi ENE 3.5 mph - N/A   Mostly Cloudy
11:00 PM 42.8 °F - 42.8 °F 100% 30.10 in 2.5 mi Calm Calm - N/A   Mostly Cloudy
11:13 PM 42.8 °F - - N/A% - 2.5 mi Calm Calm - N/A   Mostly Cloudy